Tracking 21092 objects as of 14-Aug-2020
HD Live streaming from Space Station
objects crossing your sky now
Track the most recent launched group of Starlink satellites

FALCON 9 R/B

Track FALCON 9 R/B now!


NORAD ID: 44480
Int'l Code: 2019-050B
Perigee: 216.9 km
Apogee: 33,945.1 km
Inclination: 26.5 °
Period: 595.7 minutes
Semi major axis: 23451 km
RCS: Unknown
Launch date: August 6, 2019
Source: United States (US)
Launch site: AIR FORCE EASTERN TEST RANGE (AFETR)

Note: This is a ROCKET BODY
aabbcc
Your satellite tracking list
Your tracking list is empty




NASA's NSSDC Master Catalog

Two Line Element Set (TLE):
1 44480U 19050B   20226.30789990 +.00002550 +00000-0 +26241-3 0  9992
2 44480 026.4620 354.3509 7190900 060.7166 351.8660 02.41731421008690
Source of the keplerian elements: AFSPC